Arlington, WA
on Tuesday, February 12, 2013

Tuesday
Previous Day Next Day
Daily Summary
 ActualAverageRecord
Temperature
Mean Temperature °F °F  
Max Temperature 48°F 58°F 62°F (2004)
Min Temperature 39°F 44°F 19°F (2002)
Degree Days
Heating Degree Days 22    
Moisture
Dew Point 41°F   
Average Humidity 87    
Maximum Humidity 100    
Minimum Humidity 76    
Precipitation
Precipitation 0.00 in in in ()
Wind
Wind Speed 3 mph   
Max Wind Speed 14 mph   
Max Gust Speed mph   
Visibility 9 miles   
Events     
Averages and records for this station are not official NWS values.
Key: T is trace of precipitation, MM is missing value
Source: NWS Daily Summary
Seasonal Weather Averages
Time(PST)TemperatureDew PointHumidity Pressure Visibility Wind DirectionWind SpeedGust SpeedPrecipitationEvents Conditions
12:15 AM 41.0°F 39.2°F 93% 30.37 in 3.0 miles Calm Calm - N/A   Overcast
12:35 AM 41.0°F 39.2°F 93% 30.37 in 5.0 miles Calm Calm - N/A   Overcast
12:55 AM 41.0°F 39.2°F 93% 30.37 in 5.0 miles Calm Calm - N/A   Overcast
1:15 AM 39.2°F 37.4°F 93% 30.37 in 5.0 miles Calm Calm - N/A   Overcast
1:35 AM 39.2°F 37.4°F 93% 30.37 in 3.0 miles Calm Calm - N/A   Overcast
1:55 AM 39.2°F 37.4°F 93% 30.37 in 5.0 miles Calm Calm - N/A   Overcast
2:15 AM 39.2°F 37.4°F 93% 30.38 in 7.0 miles Calm Calm - N/A   Overcast
2:35 AM 39.2°F 37.4°F 93% 30.38 in 5.0 miles Calm Calm - N/A   Overcast
2:55 AM 39.2°F 37.4°F 93% 30.38 in 5.0 miles Calm Calm - N/A   Overcast
3:15 AM 39.2°F 39.2°F 100% 30.38 in 7.0 miles Calm Calm - N/A   Overcast
3:35 AM 41.0°F 39.2°F 93% 30.38 in 10.0 miles Calm Calm - N/A   Overcast
3:55 AM 41.0°F 37.4°F 87% 30.37 in 10.0 miles Calm Calm - N/A   Overcast
4:15 AM 41.0°F 37.4°F 87% 30.38 in 10.0 miles Calm Calm - N/A   Overcast
4:35 AM 41.0°F 39.2°F 93% 30.38 in 10.0 miles Calm Calm - N/A   Overcast
4:55 AM 41.0°F 39.2°F 93% 30.37 in 10.0 miles Calm Calm - N/A   Overcast
5:15 AM 41.0°F 39.2°F 93% 30.37 in 5.0 miles Calm Calm - N/A   Overcast
5:35 AM 41.0°F 39.2°F 93% 30.37 in 4.0 miles Calm Calm - N/A   Overcast
5:55 AM 41.0°F 37.4°F 87% 30.38 in 5.0 miles Calm Calm - N/A   Overcast
6:15 AM 41.0°F 39.2°F 93% 30.38 in 5.0 miles Calm Calm - N/A   Overcast
6:35 AM 41.0°F 39.2°F 93% 30.38 in 6.0 miles Calm Calm - N/A   Overcast
6:55 AM 41.0°F 39.2°F 93% 30.39 in 4.0 miles Calm Calm - N/A   Overcast
7:15 AM 41.0°F 39.2°F 93% 30.39 in 8.0 miles Calm Calm - N/A   Overcast
7:35 AM 41.0°F 39.2°F 93% 30.39 in 9.0 miles Calm Calm - N/A   Overcast
7:55 AM 41.0°F 39.2°F 93% 30.39 in 9.0 miles Calm Calm - N/A   Overcast
8:15 AM 41.0°F 39.2°F 93% 30.39 in 10.0 miles Calm Calm - N/A   Overcast
8:35 AM 42.8°F 39.2°F 87% 30.40 in 10.0 miles Calm Calm - N/A   Overcast
8:55 AM 42.8°F 39.2°F 87% 30.41 in 10.0 miles Calm Calm - N/A   Overcast
9:15 AM 42.8°F 39.2°F 87% 30.41 in 10.0 miles Calm Calm - N/A   Overcast
9:35 AM 42.8°F 41.0°F 93% 30.41 in 10.0 miles Calm Calm - N/A   Overcast
9:55 AM 42.8°F 41.0°F 93% 30.41 in 10.0 miles Calm Calm - N/A   Overcast
10:15 AM 44.6°F 41.0°F 87% 30.41 in 10.0 miles Calm Calm - N/A   Overcast
10:35 AM 44.6°F 42.8°F 93% 30.42 in 10.0 miles Calm Calm - N/A   Overcast
10:55 AM 46.4°F 41.0°F 81% 30.42 in 10.0 miles Calm Calm - N/A   Overcast
11:15 AM 46.4°F 42.8°F 87% 30.42 in 10.0 miles Calm Calm - N/A   Overcast
11:35 AM 48.2°F 42.8°F 82% 30.41 in 10.0 miles SE 4.6 mph - N/A   Overcast
11:55 AM 48.2°F 42.8°F 82% 30.40 in 10.0 miles SSE 6.9 mph - N/A   Overcast
12:15 PM 48.2°F 42.8°F 82% 30.40 in 10.0 miles SE 5.8 mph - N/A   Overcast
12:35 PM 48.2°F 42.8°F 82% 30.39 in 10.0 miles SE 6.9 mph - N/A   Overcast
12:55 PM 48.2°F 42.8°F 82% 30.39 in 10.0 miles SE 4.6 mph - N/A   Overcast
1:15 PM 48.2°F 42.8°F 82% 30.38 in 10.0 miles SE 8.1 mph - N/A   Overcast
1:35 PM 48.2°F 42.8°F 82% 30.37 in 10.0 miles SE 8.1 mph - N/A   Overcast
1:55 PM 48.2°F 42.8°F 82% 30.34 in 10.0 miles SE 13.8 mph - N/A   Mostly Cloudy
2:15 PM 48.2°F 42.8°F 82% 30.35 in 10.0 miles SE 12.7 mph - N/A   Overcast
2:35 PM 46.4°F 42.8°F 87% 30.35 in 10.0 miles SE 10.4 mph - N/A   Overcast
2:55 PM 48.2°F 42.8°F 82% 30.35 in 10.0 miles SE 8.1 mph - N/A   Overcast
3:15 PM 46.4°F 42.8°F 87% 30.35 in 10.0 miles SSE 9.2 mph - N/A   Overcast
3:35 PM 46.4°F 42.8°F 87% 30.34 in 10.0 miles SE 11.5 mph - N/A   Overcast
3:55 PM 46.4°F 42.8°F 87% 30.33 in 10.0 miles SE 11.5 mph - N/A   Overcast
4:15 PM 46.4°F 42.8°F 87% 30.35 in 10.0 miles SE 6.9 mph - N/A   Overcast
4:35 PM 46.4°F 42.8°F 87% 30.34 in 10.0 miles SE 10.4 mph - N/A   Overcast
4:55 PM 48.2°F 42.8°F 82% 30.34 in 10.0 miles SE 10.4 mph - N/A   Overcast
5:15 PM 48.2°F 42.8°F 82% 30.33 in 10.0 miles SE 9.2 mph - N/A   Overcast
5:35 PM 48.2°F 42.8°F 82% 30.33 in 10.0 miles SE 6.9 mph - N/A   Overcast
5:55 PM 48.2°F 42.8°F 82% 30.33 in 10.0 miles SE 8.1 mph - N/A   Overcast
6:15 PM 48.2°F 42.8°F 82% 30.32 in 10.0 miles SSE 10.4 mph - N/A   Overcast
6:35 PM 48.2°F 42.8°F 82% 30.31 in 10.0 miles SE 9.2 mph - N/A   Overcast
6:55 PM 48.2°F 42.8°F 82% 30.31 in 10.0 miles SSE 9.2 mph - N/A   Overcast
7:15 PM 48.2°F 42.8°F 82% 30.31 in 10.0 miles South 6.9 mph - N/A   Overcast
7:35 PM 48.2°F 42.8°F 82% 30.30 in 10.0 miles SSE 10.4 mph - N/A   Overcast
7:55 PM 48.2°F 42.8°F 82% 30.30 in 10.0 miles SSE 9.2 mph - N/A   Overcast
8:15 PM 48.2°F 42.8°F 82% 30.30 in 10.0 miles SSE 9.2 mph - N/A   Overcast
8:35 PM 48.2°F 42.8°F 82% 30.30 in 10.0 miles South 10.4 mph - N/A   Overcast
8:55 PM 48.2°F 42.8°F 82% 30.29 in 10.0 miles South 8.1 mph - N/A   Overcast
9:15 PM 48.2°F 42.8°F 82% 30.29 in 10.0 miles South 9.2 mph - N/A   Overcast
9:35 PM 48.2°F 42.8°F 82% 30.29 in 10.0 miles South 10.4 mph - N/A   Overcast
9:55 PM 48.2°F 42.8°F 82% 30.30 in 10.0 miles South 6.9 mph - N/A   Overcast
10:15 PM 48.2°F 42.8°F 82% 30.29 in 10.0 miles SSE 12.7 mph - N/A   Overcast
10:35 PM 48.2°F 42.8°F 82% 30.31 in 10.0 miles SSE 8.1 mph - N/A   Overcast
10:55 PM 48.2°F 42.8°F 82% 30.30 in 10.0 miles SSE 9.2 mph - N/A   Overcast
11:15 PM 48.2°F 42.8°F 82% 30.32 in 10.0 miles SSE 10.4 mph - N/A   Overcast
11:35 PM 48.2°F 41.0°F 76% 30.32 in 10.0 miles SSE 10.4 mph - N/A   Overcast
11:55 PM 48.2°F 41.0°F 76% 30.31 in 10.0 miles South 12.7 mph - N/A   Overcast
Moon Phase
Feb. 12 Feb. 17 Feb. 25 Mar. 04 Mar. 11
Sunrise:07:19 AM (PST) Moon Rise:08:03 AM (PST)2/12
Sunset:05:26 PM (PST) Moon Set:08:52 PM (PST)2/12

Copyright © 2014 The Weather Underground, Inc.